DECAYED

NOAA 17 DEB, 48739 (Decayed)

Orbit data source: Space-Track

NOAA 17 DEB, 48739 was space debris in SSO originally from a launch on Mon, 24 Jun 2002 UTC launched from the Air Force Western Test Range (AFWTR). Debris objects in space refer to the collection of defunct objects orbiting the Earth. Examples of debris include non-operational satellites, rocket bodies, and fragments generated from explosions, collisions, or faulty payload assembly.

Loading next visibility...
Identifier
48739, 2002-032BY
Orbit
Decayed
Country
Flag of USUS
Related business
Manufacturer
Unknown
Mission
Decayed spacecraft
Bus & Motor
Unknown
Mass
Unknown
Launch date (UTC)
2002-06-24 (24 years ago)
Launch vehicle
Unknown
Launch site
Air Force Western Test Range (AFWTR)
Object type
Payload
Rocket body
Debris
Shape & HBR
Unknown shape, 0.1 m
Radar Cross Section
Medium (>0.1 m² and <1 m²)

Expand to show TLE details & history
Last TLE update: 1 year ago

TLE from 1 year ago
0 NOAA 17 DEB
1 48739U 02032BY  25073.56478475  .01129062  00000-0  17538-1 0  9997
2 48739  98.7599 118.9735 0013687 230.4194 129.5846 15.50971957211190
Epoch: 2025-03-14T13:33Z
TLE epoch observation values (Epoch: 2025-03-14T13:33:17.402Z)
Latitude
0.00002°
Longitude
103.22813°
Altitude
422.909 km
Speed
7.654 km/s
True Right ascension
07h 55m 53s
True Declination
0° 00' 00"
Sunlit
Object was in full shadow at epoch
Visualization orbit readout
Latitude
Unknown
Longitude
Unknown
Altitude
Unknown
Speed
Unknown
Apparent Right ascension
Unknown
Apparent Declination
Unknown
Sunlit
N/A
Visualization observer readout
Local Sidereal Time
21:37:41
Azimuth
Unknown
Elevation
Unknown
Doppler factor
Unknown
Orbital elements
Apogee altitude
420.168 km
Perigee altitude
401.583 km
Semi-major axis
6,789.013 km
Eccentricity
0.00137
Inclination
98.7599°
RAAN
118.9735°
Arg. of periapsis
230.4194°
True anomaly
129.70534°
Mean anomaly
129.5846°
Eccentric anomaly
129.64498°
Mean motion
3.88001 °/min
Orbital period
92.78 mins
BSTAR
0.017538
Loading maneuver chart data...
Computing Atmospheric mass density...

Documentation

Showing up to 5 results
|